Location: Huesca
(42.1318°N, 0.4078°W)
Time: 21:17:10
(UTC+02:00)

DIWATA 2B (PO-101) - Pass Details

Date: 03 May 2024
Orbit: 575 x 589 km, 98.1° (Epoch: 20 May)

Event Time Altitude Azimuth Distance (km) Brightness Sun altitude
Rises 04:33:02 0° 136° (SE) 2,809 ? -22.0°
Reaches altitude 10° 04:35:29 10° 122° (ESE) 1,912 ? -21.7°
Maximum altitude 04:38:52 25° 68° (ENE) 1,212 ? -21.3°
Drops below altitude 10° 04:42:15 10° 13° (NNE) 1,918 ? -20.9°
Sets 04:44:41 0° 0° (N) 2,821 ? -20.6°
